Year,Month,Day,Hour,Minute,Value (Times are PST for temperature in C)
2018,05,03,00,00,12.10
2018,05,03,00,01,12.10
2018,05,03,00,02,12.10
2018,05,03,00,03,12.10
2018,05,03,00,04,12.10
2018,05,03,00,05,12.10
2018,05,03,00,06,12.00
2018,05,03,00,07,12.00
2018,05,03,00,08,12.00
2018,05,03,00,09,12.00
2018,05,03,00,10,12.00
2018,05,03,00,11,12.00
2018,05,03,00,12,11.90
2018,05,03,00,13,11.90
2018,05,03,00,14,11.90
2018,05,03,00,15,11.90
2018,05,03,00,16,11.80
2018,05,03,00,17,11.80
2018,05,03,00,18,11.80
2018,05,03,00,19,11.80
2018,05,03,00,20,11.80
2018,05,03,00,21,11.80
2018,05,03,00,22,11.70
2018,05,03,00,23,11.70
2018,05,03,00,24,11.70
2018,05,03,00,25,11.70
2018,05,03,00,26,11.70
2018,05,03,00,27,11.60
2018,05,03,00,28,11.60
2018,05,03,00,29,11.60
2018,05,03,00,30,11.60
2018,05,03,00,31,11.60
2018,05,03,00,32,11.60
2018,05,03,00,33,11.50
2018,05,03,00,34,11.50
2018,05,03,00,35,11.50
2018,05,03,00,36,11.40
2018,05,03,00,37,11.40
2018,05,03,00,38,11.40
2018,05,03,00,39,11.40
2018,05,03,00,40,11.40
2018,05,03,00,41,11.40
2018,05,03,00,42,11.40
2018,05,03,00,43,11.40
2018,05,03,00,44,11.40
2018,05,03,00,45,11.40
2018,05,03,00,46,11.40
2018,05,03,00,47,11.40
2018,05,03,00,48,11.30
2018,05,03,00,49,11.30
2018,05,03,00,50,11.30
2018,05,03,00,51,11.30
2018,05,03,00,52,11.30
2018,05,03,00,53,11.30
2018,05,03,00,54,11.30
2018,05,03,00,55,11.20
2018,05,03,00,56,11.20
2018,05,03,00,57,11.20
2018,05,03,00,58,11.20
2018,05,03,00,59,11.20
2018,05,03,01,00,11.20
2018,05,03,01,01,11.20
2018,05,03,01,02,11.20
2018,05,03,01,03,11.20
2018,05,03,01,04,11.20
2018,05,03,01,05,11.20
2018,05,03,01,06,11.20
2018,05,03,01,07,11.20
2018,05,03,01,08,11.20
2018,05,03,01,09,11.20
2018,05,03,01,10,11.20
2018,05,03,01,11,11.10
2018,05,03,01,12,11.10
2018,05,03,01,13,11.10
2018,05,03,01,14,11.10
2018,05,03,01,15,11.10
2018,05,03,01,16,11.10
2018,05,03,01,17,11.10
2018,05,03,01,18,11.00
2018,05,03,01,19,11.00
2018,05,03,01,20,11.00
2018,05,03,01,21,11.00
2018,05,03,01,22,10.90
2018,05,03,01,23,10.90
2018,05,03,01,24,10.90
2018,05,03,01,25,10.90
2018,05,03,01,26,10.90
2018,05,03,01,27,10.90
2018,05,03,01,28,10.90
2018,05,03,01,29,10.80
2018,05,03,01,30,10.80
2018,05,03,01,31,10.80
2018,05,03,01,32,10.80
2018,05,03,01,33,10.70
2018,05,03,01,34,10.70
2018,05,03,01,35,10.70
2018,05,03,01,36,10.70
2018,05,03,01,37,10.70
2018,05,03,01,38,10.70
2018,05,03,01,39,10.60
2018,05,03,01,40,10.60
2018,05,03,01,41,10.60
2018,05,03,01,42,10.60
2018,05,03,01,43,10.60
2018,05,03,01,44,10.60
2018,05,03,01,45,10.60
2018,05,03,01,46,10.60
2018,05,03,01,47,10.60
2018,05,03,01,48,10.60
2018,05,03,01,49,10.60
2018,05,03,01,50,10.50
2018,05,03,01,51,10.50
2018,05,03,01,52,10.50
2018,05,03,01,53,10.50
2018,05,03,01,54,10.50
2018,05,03,01,55,10.50
2018,05,03,01,56,10.50
2018,05,03,01,57,10.50
2018,05,03,01,58,10.50
2018,05,03,01,59,10.40
2018,05,03,02,00,10.40
2018,05,03,02,01,10.40
2018,05,03,02,02,10.40
2018,05,03,02,03,10.40
2018,05,03,02,04,10.40
2018,05,03,02,05,10.40
2018,05,03,02,06,10.40
2018,05,03,02,07,10.30
2018,05,03,02,08,10.30
2018,05,03,02,09,10.30
2018,05,03,02,10,10.30
2018,05,03,02,11,10.30
2018,05,03,02,12,10.30
2018,05,03,02,13,10.20
2018,05,03,02,14,10.20
2018,05,03,02,15,10.20
2018,05,03,02,16,10.20
2018,05,03,02,17,10.20
2018,05,03,02,18,10.20
2018,05,03,02,19,10.10
2018,05,03,02,20,10.10
2018,05,03,02,21,10.10
2018,05,03,02,22,10.10
2018,05,03,02,23,10.10
2018,05,03,02,24,10.00
2018,05,03,02,25,10.00
2018,05,03,02,26,9.90
2018,05,03,02,27,9.90
2018,05,03,02,28,9.90
2018,05,03,02,29,9.90
2018,05,03,02,30,9.90
2018,05,03,02,31,9.90
2018,05,03,02,32,9.90
2018,05,03,02,33,9.90
2018,05,03,02,34,9.80
2018,05,03,02,35,9.80
2018,05,03,02,36,9.80
2018,05,03,02,37,9.80
2018,05,03,02,38,9.80
2018,05,03,02,39,9.80
2018,05,03,02,40,9.80
2018,05,03,02,41,9.80
2018,05,03,02,42,9.80
2018,05,03,02,43,9.80
2018,05,03,02,44,9.70
2018,05,03,02,45,9.70
2018,05,03,02,46,9.70
2018,05,03,02,47,9.70
2018,05,03,02,48,9.70
2018,05,03,02,49,9.70
2018,05,03,02,50,9.70
2018,05,03,02,51,9.70
2018,05,03,02,52,9.70
2018,05,03,02,53,9.70
2018,05,03,02,54,9.70
2018,05,03,02,55,9.70
2018,05,03,02,56,9.70
2018,05,03,02,57,9.60
2018,05,03,02,58,9.60
2018,05,03,02,59,9.60
2018,05,03,03,00,9.60
2018,05,03,03,01,9.60
2018,05,03,03,02,9.60
2018,05,03,03,03,9.60
2018,05,03,03,04,9.60
2018,05,03,03,05,9.60
2018,05,03,03,06,9.60
2018,05,03,03,07,9.60
2018,05,03,03,08,9.60
2018,05,03,03,09,9.60
2018,05,03,03,10,9.50
2018,05,03,03,11,9.50
2018,05,03,03,12,9.50
2018,05,03,03,13,9.50
2018,05,03,03,14,9.50
2018,05,03,03,15,9.50
2018,05,03,03,16,9.50
2018,05,03,03,17,9.50
2018,05,03,03,18,9.40
2018,05,03,03,19,9.40
2018,05,03,03,20,9.40
2018,05,03,03,21,9.40
2018,05,03,03,22,9.40
2018,05,03,03,23,9.40
2018,05,03,03,24,9.40
2018,05,03,03,25,9.40
2018,05,03,03,26,9.40
2018,05,03,03,27,9.40
2018,05,03,03,28,9.40
2018,05,03,03,29,9.40
2018,05,03,03,30,9.40
2018,05,03,03,31,9.40
2018,05,03,03,32,9.40
2018,05,03,03,33,9.30
2018,05,03,03,34,9.30
2018,05,03,03,35,9.30
2018,05,03,03,36,9.30
2018,05,03,03,37,9.30
2018,05,03,03,38,9.30
2018,05,03,03,39,9.30
2018,05,03,03,40,9.30
2018,05,03,03,41,9.30
2018,05,03,03,42,9.20
2018,05,03,03,43,9.20
2018,05,03,03,44,9.20
2018,05,03,03,45,9.20
2018,05,03,03,46,9.20
2018,05,03,03,47,9.20
2018,05,03,03,48,9.20
2018,05,03,03,49,9.20
2018,05,03,03,50,9.20
2018,05,03,03,51,9.20
2018,05,03,03,52,9.20
2018,05,03,03,53,9.20
2018,05,03,03,54,9.20
2018,05,03,03,55,9.20
2018,05,03,03,56,9.20
2018,05,03,03,57,9.20
2018,05,03,03,58,9.20
2018,05,03,03,59,9.20
2018,05,03,04,00,9.20
2018,05,03,04,01,9.20
2018,05,03,04,02,9.20
2018,05,03,04,03,9.20
2018,05,03,04,04,9.20
2018,05,03,04,05,9.20
2018,05,03,04,06,9.20
2018,05,03,04,07,9.20
2018,05,03,04,08,9.10
2018,05,03,04,09,9.10
2018,05,03,04,10,9.10
2018,05,03,04,11,9.10
2018,05,03,04,12,9.10
2018,05,03,04,13,9.10
2018,05,03,04,14,9.10
2018,05,03,04,15,9.00
2018,05,03,04,16,9.00
2018,05,03,04,17,9.00
2018,05,03,04,18,9.00
2018,05,03,04,19,9.00
2018,05,03,04,20,8.90
2018,05,03,04,21,8.90
2018,05,03,04,22,8.90
2018,05,03,04,23,8.90
2018,05,03,04,24,8.90
2018,05,03,04,25,8.90
2018,05,03,04,26,8.90
2018,05,03,04,27,8.80
2018,05,03,04,28,8.80
2018,05,03,04,29,8.80
2018,05,03,04,30,8.80
2018,05,03,04,31,8.80
2018,05,03,04,32,8.80
2018,05,03,04,33,8.80
2018,05,03,04,34,8.80
2018,05,03,04,35,8.80
2018,05,03,04,36,8.80
2018,05,03,04,37,8.80
2018,05,03,04,38,8.80
2018,05,03,04,39,8.80
2018,05,03,04,40,8.80
2018,05,03,04,41,8.80
2018,05,03,04,42,8.80
2018,05,03,04,43,8.80
2018,05,03,04,44,8.80
2018,05,03,04,45,8.80
2018,05,03,04,46,8.80
2018,05,03,04,47,8.80
2018,05,03,04,48,8.80
2018,05,03,04,49,8.80
2018,05,03,04,50,8.80
2018,05,03,04,51,8.80
2018,05,03,04,52,8.80
2018,05,03,04,53,8.70
2018,05,03,04,54,8.70
2018,05,03,04,55,8.70
2018,05,03,04,56,8.70
2018,05,03,04,57,8.70
2018,05,03,04,58,8.70
2018,05,03,04,59,8.70
2018,05,03,05,00,8.60
2018,05,03,05,01,8.60
2018,05,03,05,02,8.60
2018,05,03,05,03,8.60
2018,05,03,05,04,8.60
2018,05,03,05,05,8.60
2018,05,03,05,06,8.60
2018,05,03,05,07,8.60
2018,05,03,05,08,8.50
2018,05,03,05,09,8.50
2018,05,03,05,10,8.50
2018,05,03,05,11,8.50
2018,05,03,05,12,8.50
2018,05,03,05,13,8.50
2018,05,03,05,14,8.50
2018,05,03,05,15,8.50
2018,05,03,05,16,8.50
2018,05,03,05,17,8.50
2018,05,03,05,18,8.40
2018,05,03,05,19,8.40
2018,05,03,05,20,8.40
2018,05,03,05,21,8.40
2018,05,03,05,22,8.40
2018,05,03,05,23,8.40
2018,05,03,05,24,8.40
2018,05,03,05,25,8.40
2018,05,03,05,26,8.40
2018,05,03,05,27,8.40
2018,05,03,05,28,8.40
2018,05,03,05,29,8.40
2018,05,03,05,30,8.30
2018,05,03,05,31,8.30
2018,05,03,05,32,8.30
2018,05,03,05,33,8.30
2018,05,03,05,34,8.30
2018,05,03,05,35,8.30
2018,05,03,05,36,8.30
2018,05,03,05,37,8.30
2018,05,03,05,38,8.30
2018,05,03,05,39,8.30
2018,05,03,05,40,8.30
2018,05,03,05,41,8.30
2018,05,03,05,42,8.30
2018,05,03,05,43,8.30
2018,05,03,05,44,8.30
2018,05,03,05,45,8.30
2018,05,03,05,46,8.30
2018,05,03,05,47,8.30
2018,05,03,05,48,8.30
2018,05,03,05,49,8.30
2018,05,03,05,50,8.30
2018,05,03,05,51,8.30
2018,05,03,05,52,8.30
2018,05,03,05,53,8.30
2018,05,03,05,54,8.30
2018,05,03,05,55,8.30
2018,05,03,05,56,8.30
2018,05,03,05,57,8.30
2018,05,03,05,58,8.30
2018,05,03,05,59,8.20
2018,05,03,06,00,8.20
2018,05,03,06,01,8.20
2018,05,03,06,02,8.20
2018,05,03,06,03,8.20
2018,05,03,06,04,8.20
2018,05,03,06,05,8.20
2018,05,03,06,06,8.20
2018,05,03,06,07,8.20
2018,05,03,06,08,8.20
2018,05,03,06,09,8.20
2018,05,03,06,10,8.20
2018,05,03,06,11,8.20
2018,05,03,06,12,8.20
2018,05,03,06,13,8.10
2018,05,03,06,14,8.20
2018,05,03,06,15,8.10
2018,05,03,06,16,8.10
2018,05,03,06,17,8.10
2018,05,03,06,18,8.10
2018,05,03,06,19,8.10
2018,05,03,06,20,8.10
2018,05,03,06,21,8.10
2018,05,03,06,22,8.10
2018,05,03,06,23,8.10
2018,05,03,06,24,8.10
2018,05,03,06,25,8.10
2018,05,03,06,26,8.20
2018,05,03,06,27,8.20
2018,05,03,06,28,8.20
2018,05,03,06,29,8.20
2018,05,03,06,30,8.20
2018,05,03,06,31,8.20
2018,05,03,06,32,8.20
2018,05,03,06,33,8.20
2018,05,03,06,34,8.20
2018,05,03,06,35,8.20
2018,05,03,06,36,8.20
2018,05,03,06,37,8.20
2018,05,03,06,38,8.20
2018,05,03,06,39,8.20
2018,05,03,06,40,8.20
2018,05,03,06,41,8.20
2018,05,03,06,42,8.20
2018,05,03,06,43,8.20
2018,05,03,06,44,8.20
2018,05,03,06,45,8.20
2018,05,03,06,46,8.30
2018,05,03,06,47,8.30
2018,05,03,06,48,8.30
2018,05,03,06,49,8.30
2018,05,03,06,50,8.30
2018,05,03,06,51,8.30
2018,05,03,06,52,8.30
2018,05,03,06,53,8.30
2018,05,03,06,54,8.30
2018,05,03,06,55,8.30
2018,05,03,06,56,8.30
2018,05,03,06,57,8.30
2018,05,03,06,58,8.30
2018,05,03,06,59,8.30
2018,05,03,07,00,8.30
2018,05,03,07,01,8.30
2018,05,03,07,02,8.30
2018,05,03,07,03,8.40
2018,05,03,07,04,8.40
2018,05,03,07,05,8.40
2018,05,03,07,06,8.40
2018,05,03,07,07,8.50
2018,05,03,07,08,8.50
2018,05,03,07,09,8.50
2018,05,03,07,10,8.60
2018,05,03,07,11,8.60
2018,05,03,07,12,8.70
2018,05,03,07,13,8.70
2018,05,03,07,14,8.70
2018,05,03,07,15,8.70
2018,05,03,07,16,8.80
2018,05,03,07,17,8.80
2018,05,03,07,18,8.80
2018,05,03,07,19,8.80
2018,05,03,07,20,8.80
2018,05,03,07,21,8.90
2018,05,03,07,22,8.90
2018,05,03,07,23,8.90
2018,05,03,07,24,8.90
2018,05,03,07,25,8.90
2018,05,03,07,26,9.00
2018,05,03,07,27,9.00
2018,05,03,07,28,9.00
2018,05,03,07,29,9.10
2018,05,03,07,30,9.10
2018,05,03,07,31,9.20
2018,05,03,07,32,9.20
2018,05,03,07,33,9.20
2018,05,03,07,34,9.30
2018,05,03,07,35,9.30
2018,05,03,07,36,9.30
2018,05,03,07,37,9.40
2018,05,03,07,38,9.40
2018,05,03,07,39,9.50
2018,05,03,07,40,9.50
2018,05,03,07,41,9.60
2018,05,03,07,42,9.60
2018,05,03,07,43,9.60
2018,05,03,07,44,9.70
2018,05,03,07,45,9.70
2018,05,03,07,46,9.80
2018,05,03,07,47,9.80
2018,05,03,07,48,9.80
2018,05,03,07,49,9.90
2018,05,03,07,50,9.90
2018,05,03,07,51,10.00
2018,05,03,07,52,10.00
2018,05,03,07,53,10.10
2018,05,03,07,54,10.10
2018,05,03,07,55,10.20
2018,05,03,07,56,10.20
2018,05,03,07,57,10.30
2018,05,03,07,58,10.30
2018,05,03,07,59,10.30
2018,05,03,08,00,10.40
2018,05,03,08,01,10.40
2018,05,03,08,02,10.40
2018,05,03,08,03,10.40
2018,05,03,08,04,10.40
2018,05,03,08,05,10.40
2018,05,03,08,06,10.40
2018,05,03,08,07,10.40
2018,05,03,08,08,10.50
2018,05,03,08,09,10.50
2018,05,03,08,10,10.60
2018,05,03,08,11,10.60
2018,05,03,08,12,10.60
2018,05,03,08,13,10.60
2018,05,03,08,14,10.60
2018,05,03,08,15,10.60
2018,05,03,08,16,10.60
2018,05,03,08,17,10.60
2018,05,03,08,18,10.60
2018,05,03,08,19,10.60
2018,05,03,08,20,10.70
2018,05,03,08,21,10.80
2018,05,03,08,22,10.80
2018,05,03,08,23,10.80
2018,05,03,08,24,10.80
2018,05,03,08,25,10.90
2018,05,03,08,26,10.90
2018,05,03,08,27,10.90
2018,05,03,08,28,10.90
2018,05,03,08,29,11.00
2018,05,03,08,30,11.00
2018,05,03,08,31,11.10
2018,05,03,08,32,11.10
2018,05,03,08,33,11.20
2018,05,03,08,34,11.20
2018,05,03,08,35,11.30
2018,05,03,08,36,11.30
2018,05,03,08,37,11.30
2018,05,03,08,38,11.30
2018,05,03,08,39,11.40
2018,05,03,08,40,11.40
2018,05,03,08,41,11.40
2018,05,03,08,42,11.50
2018,05,03,08,43,11.50
2018,05,03,08,44,11.50
2018,05,03,08,45,11.50
2018,05,03,08,46,11.60
2018,05,03,08,47,11.60
2018,05,03,08,48,11.70
2018,05,03,08,49,11.70
2018,05,03,08,50,11.80
2018,05,03,08,51,11.80
2018,05,03,08,52,11.90
2018,05,03,08,53,11.90
2018,05,03,08,54,11.90
2018,05,03,08,55,12.00
2018,05,03,08,56,12.00
2018,05,03,08,57,12.10
2018,05,03,08,58,12.10
2018,05,03,08,59,12.10
2018,05,03,09,00,12.20
2018,05,03,09,01,12.20
2018,05,03,09,02,12.10
2018,05,03,09,03,12.20
2018,05,03,09,04,12.20
2018,05,03,09,05,12.20
2018,05,03,09,06,12.20
2018,05,03,09,07,12.20
2018,05,03,09,08,12.20
2018,05,03,09,09,12.30
2018,05,03,09,10,12.30
2018,05,03,09,11,12.30
2018,05,03,09,12,12.30
2018,05,03,09,13,12.30
2018,05,03,09,14,12.40
2018,05,03,09,15,12.40
2018,05,03,09,16,12.50
2018,05,03,09,17,12.60
2018,05,03,09,18,12.70
2018,05,03,09,19,12.70
2018,05,03,09,20,12.80
2018,05,03,09,21,12.80
2018,05,03,09,22,12.90
2018,05,03,09,23,13.00
2018,05,03,09,24,13.10
2018,05,03,09,25,13.20
2018,05,03,09,26,13.30
2018,05,03,09,27,13.30
2018,05,03,09,28,13.30
2018,05,03,09,29,13.40
2018,05,03,09,30,13.40
2018,05,03,09,31,13.40
2018,05,03,09,32,13.40
2018,05,03,09,33,13.40
2018,05,03,09,34,13.40
2018,05,03,09,35,13.50
2018,05,03,09,36,13.60
2018,05,03,09,37,13.60
2018,05,03,09,38,13.70
2018,05,03,09,39,13.70
2018,05,03,09,40,13.70
2018,05,03,09,41,13.80
2018,05,03,09,42,13.80
2018,05,03,09,43,13.80
2018,05,03,09,44,13.80
2018,05,03,09,45,13.80
2018,05,03,09,46,13.80
2018,05,03,09,47,13.90
2018,05,03,09,48,13.90
2018,05,03,09,49,14.00
2018,05,03,09,50,14.00
2018,05,03,09,51,14.10
2018,05,03,09,52,14.20
2018,05,03,09,53,14.20
2018,05,03,09,54,14.20
2018,05,03,09,55,14.30
2018,05,03,09,56,14.30
2018,05,03,09,57,14.30
2018,05,03,09,58,14.40
2018,05,03,09,59,14.40
2018,05,03,10,00,14.40
2018,05,03,10,01,14.40
2018,05,03,10,02,14.40
2018,05,03,10,03,14.40
2018,05,03,10,04,14.40
2018,05,03,10,05,14.40
2018,05,03,10,06,14.40
2018,05,03,10,07,14.50
2018,05,03,10,08,14.50
2018,05,03,10,09,14.60
2018,05,03,10,10,14.60
2018,05,03,10,11,14.60
2018,05,03,10,12,14.60
2018,05,03,10,13,14.60
2018,05,03,10,14,14.70
2018,05,03,10,15,14.70
2018,05,03,10,16,14.60
2018,05,03,10,17,14.60
2018,05,03,10,18,14.60
2018,05,03,10,19,14.60
2018,05,03,10,20,14.70
2018,05,03,10,21,14.70
2018,05,03,10,22,14.80
2018,05,03,10,23,14.90
2018,05,03,10,24,14.90
2018,05,03,10,25,15.00
2018,05,03,10,26,15.10
2018,05,03,10,27,15.20
2018,05,03,10,28,15.30
2018,05,03,10,29,15.40
2018,05,03,10,30,15.50
2018,05,03,10,31,15.50
2018,05,03,10,32,15.60
2018,05,03,10,33,15.70
2018,05,03,10,34,15.70
2018,05,03,10,35,15.80
2018,05,03,10,36,15.90
2018,05,03,10,37,16.00
2018,05,03,10,38,16.10
2018,05,03,10,39,16.20
2018,05,03,10,40,16.20
2018,05,03,10,41,16.30
2018,05,03,10,42,16.40
2018,05,03,10,43,16.60
2018,05,03,10,44,16.70
2018,05,03,10,45,16.90
2018,05,03,10,46,17.00
2018,05,03,10,47,17.10
2018,05,03,10,48,17.10
2018,05,03,10,49,17.10
2018,05,03,10,50,17.20
2018,05,03,10,51,17.10
2018,05,03,10,52,17.00
2018,05,03,10,53,16.90
2018,05,03,10,54,16.80
2018,05,03,10,55,16.70
2018,05,03,10,56,16.60
2018,05,03,10,57,16.60
2018,05,03,10,58,16.50
2018,05,03,10,59,16.40
2018,05,03,11,00,16.40
2018,05,03,11,01,16.50
2018,05,03,11,02,16.50
2018,05,03,11,03,16.50
2018,05,03,11,04,16.50
2018,05,03,11,05,16.50
2018,05,03,11,06,16.40
2018,05,03,11,07,16.50
2018,05,03,11,08,16.50
2018,05,03,11,09,16.60
2018,05,03,11,10,16.60
2018,05,03,11,11,16.80
2018,05,03,11,12,16.90
2018,05,03,11,13,17.00
2018,05,03,11,14,17.10
2018,05,03,11,15,17.20
2018,05,03,11,16,17.30
2018,05,03,11,17,17.40
2018,05,03,11,18,17.40
2018,05,03,11,19,17.50
2018,05,03,11,20,17.60
2018,05,03,11,21,17.70
2018,05,03,11,22,17.70
2018,05,03,11,23,17.80
2018,05,03,11,24,17.90
2018,05,03,11,25,18.00
2018,05,03,11,26,18.10
2018,05,03,11,27,18.20
2018,05,03,11,28,18.30
2018,05,03,11,29,18.30
2018,05,03,11,30,18.40
2018,05,03,11,31,18.50
2018,05,03,11,32,18.60
2018,05,03,11,33,18.70
2018,05,03,11,34,18.80
2018,05,03,11,35,18.90
2018,05,03,11,36,18.90
2018,05,03,11,37,18.80
2018,05,03,11,38,18.80
2018,05,03,11,39,18.70
2018,05,03,11,40,18.70
2018,05,03,11,41,18.60
2018,05,03,11,42,18.60
2018,05,03,11,43,18.60
2018,05,03,11,44,18.60
2018,05,03,11,45,18.60
2018,05,03,11,46,18.60
2018,05,03,11,47,18.60
2018,05,03,11,48,18.60
2018,05,03,11,49,18.50
2018,05,03,11,50,18.50
2018,05,03,11,51,18.60
2018,05,03,11,52,18.60
2018,05,03,11,53,18.60
2018,05,03,11,54,18.70
2018,05,03,11,55,18.80
2018,05,03,11,56,18.80
2018,05,03,11,57,18.80
2018,05,03,11,58,18.80
2018,05,03,11,59,18.80
2018,05,03,12,00,18.80
2018,05,03,12,01,18.80
2018,05,03,12,02,18.80
2018,05,03,12,03,18.80
2018,05,03,12,04,18.90
2018,05,03,12,05,19.00
2018,05,03,12,06,19.10
2018,05,03,12,07,19.20
2018,05,03,12,08,19.20
2018,05,03,12,09,19.30
2018,05,03,12,10,19.30
2018,05,03,12,11,19.30
2018,05,03,12,12,19.30
2018,05,03,12,13,19.40
2018,05,03,12,14,19.50
2018,05,03,12,15,19.60
2018,05,03,12,16,19.60
2018,05,03,12,17,19.70
2018,05,03,12,18,19.70
2018,05,03,12,19,19.80
2018,05,03,12,20,19.80
2018,05,03,12,21,19.90
2018,05,03,12,22,20.00
2018,05,03,12,23,20.10
2018,05,03,12,24,20.20
2018,05,03,12,25,20.20
2018,05,03,12,26,20.10
2018,05,03,12,27,20.10
2018,05,03,12,28,20.00
2018,05,03,12,29,20.00
2018,05,03,12,30,19.90
2018,05,03,12,31,19.90
2018,05,03,12,32,19.90
2018,05,03,12,33,20.00
2018,05,03,12,34,20.10
2018,05,03,12,35,20.10
2018,05,03,12,36,20.20
2018,05,03,12,37,20.20
2018,05,03,12,38,20.20
2018,05,03,12,39,20.20
2018,05,03,12,40,20.20
2018,05,03,12,41,20.20
2018,05,03,12,42,20.20
2018,05,03,12,43,20.30
2018,05,03,12,44,20.40
2018,05,03,12,45,20.40
2018,05,03,12,46,20.50
2018,05,03,12,47,20.60
2018,05,03,12,48,20.60
2018,05,03,12,49,20.70
2018,05,03,12,50,20.80
2018,05,03,12,51,20.80
2018,05,03,12,52,20.90
2018,05,03,12,53,20.90
2018,05,03,12,54,20.80
2018,05,03,12,55,20.80
2018,05,03,12,56,20.80
2018,05,03,12,57,20.80
2018,05,03,12,58,20.90
2018,05,03,12,59,20.90
2018,05,03,13,00,21.00
2018,05,03,13,01,21.10
2018,05,03,13,02,21.20
2018,05,03,13,03,21.20
2018,05,03,13,04,21.20
2018,05,03,13,05,21.20
2018,05,03,13,06,21.30
2018,05,03,13,07,21.30
2018,05,03,13,08,21.40
2018,05,03,13,09,21.40
2018,05,03,13,10,21.50
2018,05,03,13,11,21.50
2018,05,03,13,12,21.50
2018,05,03,13,13,21.50
2018,05,03,13,14,21.50
2018,05,03,13,15,21.50
2018,05,03,13,16,21.60
2018,05,03,13,17,21.60
2018,05,03,13,18,21.70
2018,05,03,13,19,21.70
2018,05,03,13,20,21.70
2018,05,03,13,21,21.70
2018,05,03,13,22,21.70
2018,05,03,13,23,21.70
2018,05,03,13,24,21.80
2018,05,03,13,25,21.80
2018,05,03,13,26,21.80
2018,05,03,13,27,21.80
2018,05,03,13,28,21.70
2018,05,03,13,29,21.70
2018,05,03,13,30,21.70
2018,05,03,13,31,21.80
2018,05,03,13,32,21.80
2018,05,03,13,33,21.80
2018,05,03,13,34,21.80
2018,05,03,13,35,21.80
2018,05,03,13,36,21.90
2018,05,03,13,37,22.00
2018,05,03,13,38,22.00
2018,05,03,13,39,21.90
2018,05,03,13,40,21.90
2018,05,03,13,41,21.90
2018,05,03,13,42,21.80
2018,05,03,13,43,21.80
2018,05,03,13,44,21.90
2018,05,03,13,45,21.90
2018,05,03,13,46,22.00
2018,05,03,13,47,22.10
2018,05,03,13,48,22.20
2018,05,03,13,49,22.10
2018,05,03,13,50,22.10
2018,05,03,13,51,22.10
2018,05,03,13,52,22.10
2018,05,03,13,53,22.10
2018,05,03,13,54,22.20
2018,05,03,13,55,22.30
2018,05,03,13,56,22.30
2018,05,03,13,57,22.30
2018,05,03,13,58,22.40
2018,05,03,13,59,22.40
2018,05,03,14,00,22.40
2018,05,03,14,01,22.40
2018,05,03,14,02,22.30
2018,05,03,14,03,22.20
2018,05,03,14,04,22.20
2018,05,03,14,05,22.20
2018,05,03,14,06,22.20
2018,05,03,14,07,22.20
2018,05,03,14,08,22.30
2018,05,03,14,09,22.40
2018,05,03,14,10,22.40
2018,05,03,14,11,22.40
2018,05,03,14,12,22.40
2018,05,03,14,13,22.40
2018,05,03,14,14,22.40
2018,05,03,14,15,22.40
2018,05,03,14,16,22.40
2018,05,03,14,17,22.40
2018,05,03,14,18,22.40
2018,05,03,14,19,22.40
2018,05,03,14,20,22.40
2018,05,03,14,21,22.40
2018,05,03,14,22,22.40
2018,05,03,14,23,22.40
2018,05,03,14,24,22.50
2018,05,03,14,25,22.60
2018,05,03,14,26,22.70
2018,05,03,14,27,22.60
2018,05,03,14,28,22.60
2018,05,03,14,29,22.50
2018,05,03,14,30,22.40
2018,05,03,14,31,22.30
2018,05,03,14,32,22.20
2018,05,03,14,33,22.20
2018,05,03,14,34,22.20
2018,05,03,14,35,22.20
2018,05,03,14,36,22.20
2018,05,03,14,37,22.20
2018,05,03,14,38,22.20
2018,05,03,14,39,22.20
2018,05,03,14,40,22.10
2018,05,03,14,41,22.00
2018,05,03,14,42,21.80
2018,05,03,14,43,21.70
2018,05,03,14,44,21.60
2018,05,03,14,45,21.60
2018,05,03,14,46,21.60
2018,05,03,14,47,21.60
2018,05,03,14,48,21.50
2018,05,03,14,49,21.50
2018,05,03,14,50,21.40
2018,05,03,14,51,21.30
2018,05,03,14,52,21.30
2018,05,03,14,53,21.40
2018,05,03,14,54,21.40
2018,05,03,14,55,21.40
2018,05,03,14,56,21.40
2018,05,03,14,57,21.40
2018,05,03,14,58,21.40
2018,05,03,14,59,21.40
2018,05,03,15,00,21.50
2018,05,03,15,01,21.50
2018,05,03,15,02,21.50
2018,05,03,15,03,21.40
2018,05,03,15,04,21.40
2018,05,03,15,05,21.40
2018,05,03,15,06,21.30
2018,05,03,15,07,21.30
2018,05,03,15,08,21.30
2018,05,03,15,09,21.30
2018,05,03,15,10,21.40
2018,05,03,15,11,21.40
2018,05,03,15,12,21.50
2018,05,03,15,13,21.60
2018,05,03,15,14,21.60
2018,05,03,15,15,21.70
2018,05,03,15,16,21.70
2018,05,03,15,17,21.70
2018,05,03,15,18,21.70
2018,05,03,15,19,21.70
2018,05,03,15,20,21.80
2018,05,03,15,21,21.80
2018,05,03,15,22,21.80
2018,05,03,15,23,21.80
2018,05,03,15,24,21.80
2018,05,03,15,25,21.70
2018,05,03,15,26,21.70
2018,05,03,15,27,21.60
2018,05,03,15,28,21.60
2018,05,03,15,29,21.60
2018,05,03,15,30,21.60
2018,05,03,15,31,21.60
2018,05,03,15,32,21.60
2018,05,03,15,33,21.60
2018,05,03,15,34,21.60
2018,05,03,15,35,21.60
2018,05,03,15,36,21.60
2018,05,03,15,37,21.60
2018,05,03,15,38,21.60
2018,05,03,15,39,21.60
2018,05,03,15,40,21.60
2018,05,03,15,41,21.60
2018,05,03,15,42,21.60
2018,05,03,15,43,21.60
2018,05,03,15,44,21.60
2018,05,03,15,45,21.60
2018,05,03,15,46,21.60
2018,05,03,15,47,21.70
2018,05,03,15,48,21.70
2018,05,03,15,49,21.70
2018,05,03,15,50,21.70
2018,05,03,15,51,21.70
2018,05,03,15,52,21.70
2018,05,03,15,53,21.70
2018,05,03,15,54,21.70
2018,05,03,15,55,21.70
2018,05,03,15,56,21.70
2018,05,03,15,57,21.70
2018,05,03,15,58,21.70
2018,05,03,15,59,21.70
2018,05,03,16,00,21.70
2018,05,03,16,01,21.70
2018,05,03,16,02,21.70
2018,05,03,16,03,21.60
2018,05,03,16,04,21.60
2018,05,03,16,05,21.60
2018,05,03,16,06,21.60
2018,05,03,16,07,21.60
2018,05,03,16,08,21.50
2018,05,03,16,09,21.50
2018,05,03,16,10,21.40
2018,05,03,16,11,21.40
2018,05,03,16,12,21.40
2018,05,03,16,13,21.30
2018,05,03,16,14,21.30
2018,05,03,16,15,21.30
2018,05,03,16,16,21.20
2018,05,03,16,17,21.20
2018,05,03,16,18,21.20
2018,05,03,16,19,21.10
2018,05,03,16,20,21.10
2018,05,03,16,21,21.10
2018,05,03,16,22,21.00
2018,05,03,16,23,21.00
2018,05,03,16,24,21.00
2018,05,03,16,25,21.00
2018,05,03,16,26,20.90
2018,05,03,16,27,20.80
2018,05,03,16,28,20.80
2018,05,03,16,29,20.80
2018,05,03,16,30,20.80
2018,05,03,16,31,20.70
2018,05,03,16,32,20.70
2018,05,03,16,33,20.60
2018,05,03,16,34,20.60
2018,05,03,16,35,20.50
2018,05,03,16,36,20.50
2018,05,03,16,37,20.40
2018,05,03,16,38,20.50
2018,05,03,16,39,20.40
2018,05,03,16,40,20.50
2018,05,03,16,41,20.40
2018,05,03,16,42,20.40
2018,05,03,16,43,20.40
2018,05,03,16,44,20.40
2018,05,03,16,45,20.50
2018,05,03,16,46,20.50
2018,05,03,16,47,20.50
2018,05,03,16,48,20.50
2018,05,03,16,49,20.50
2018,05,03,16,50,20.50
2018,05,03,16,51,20.40
2018,05,03,16,52,20.40
2018,05,03,16,53,20.40
2018,05,03,16,54,20.40
2018,05,03,16,55,20.30
2018,05,03,16,56,20.30
2018,05,03,16,57,20.40
2018,05,03,16,58,20.40
2018,05,03,16,59,20.40
2018,05,03,17,00,20.30
2018,05,03,17,01,20.30
2018,05,03,17,02,20.30
2018,05,03,17,03,20.30
2018,05,03,17,04,20.30
2018,05,03,17,05,20.40
2018,05,03,17,06,20.40
2018,05,03,17,07,20.40
2018,05,03,17,08,20.40
2018,05,03,17,09,20.40
2018,05,03,17,10,20.40
2018,05,03,17,11,20.40
2018,05,03,17,12,20.30
2018,05,03,17,13,20.30
2018,05,03,17,14,20.30
2018,05,03,17,15,20.30
2018,05,03,17,16,20.20
2018,05,03,17,17,20.20
2018,05,03,17,18,20.20
2018,05,03,17,19,20.10
2018,05,03,17,20,20.00
2018,05,03,17,21,19.90
2018,05,03,17,22,19.80
2018,05,03,17,23,19.70
2018,05,03,17,24,19.60
2018,05,03,17,25,19.50
2018,05,03,17,26,19.50
2018,05,03,17,27,19.40
2018,05,03,17,28,19.40
2018,05,03,17,29,19.40
2018,05,03,17,30,19.40
2018,05,03,17,31,19.40
2018,05,03,17,32,19.40
2018,05,03,17,33,19.40